Regional Weather Roundup
Issued by NWS

Home | Current Version | Previous Version | Text Only | Print | Product List | Glossary Off
Versions: 1 2 3 4 5 6 7 8 9 10 11 12 13 14 15 16 17 18 19 20 21 22 23 24 25 26 27 28

000
ASUS45 KBOI 212110
RWRID

IDAHO REGIONAL WEATHER ROUNDUP
NATIONAL WEATHER SERVICE BOISE ID
300 PM MDT THU SEP 21 2017

NOTE: "FAIR" INDICATES FEW OR NO CLOUDS BELOW 12000 FEET
WITH NO SIGNIFICANT WEATHER AND/OR OBSTRUCTIONS TO VISIBILITY

IDZ012-014-212200-
SOUTHWEST IDAHO


CITY           SKY/WX    TMP DP  RH WIND       PRES   REMARKS
BOISE          MOSUNNY   56  35  45 NW10      29.81F
CALDWELL       MOSUNNY   59  31  34 W9        29.82F
MOUNTAIN HOME  CLOUDY    53  37  55 NW8       29.81R
$$

IDZ016-017-212200-
SOUTHCENTRAL IDAHO


CITY           SKY/WX    TMP DP  RH WIND       PRES   REMARKS
BURLEY         CLOUDY    46  39  76 NW3       29.81F
JEROME         CLOUDY    46  42  86 SW6       29.82F
TWIN FALLS     CLOUDY    45  40  82 W8        29.82S
$$

IDZ019>023-212200-
SOUTHEAST IDAHO


CITY           SKY/WX    TMP DP  RH WIND       PRES   REMARKS
IDAHO FALLS    CLOUDY    42  38  85 SE5       29.83F
POCATELLO      LGT RAIN  42  39  89 SE6       29.83
REXBURG        CLOUDY    41  37  86 S5        29.83S
$$

IDZ006-010-011-018-031-032-212200-
CENTRAL IDAHO MOUNTAINS


CITY           SKY/WX    TMP DP  RH WIND       PRES   REMARKS
MCCALL         PTSUNNY   46  33  60 W13       29.79F
HAILEY         DRIZZLE   41  37  87 SE3       29.82F
STANLEY          N/A     39  33  79 VRB3      29.81F
SALMON         CLOUDY    50  29  44 NW5       29.83S
CHALLIS        CLOUDY    50  29  44 NE12      29.77F
$$

IDZ002-004-006-007-026-212200-
NORTHERN IDAHO


CITY           SKY/WX    TMP DP  RH WIND       PRES   REMARKS
LEWISTON       PTSUNNY   60  44  55 VRB7      29.88S
LOWELL           N/A     59  40  49 CALM      29.87F
COEUR D`ALENE  CLOUDY    46  41  82 NW5       29.91R
MULLAN PASS    CLOUDY    33  31  92 CALM      29.86S
$$




USA.gov is the U.S. government's official web portal to all federal, state and local government web resources and services.